Location: Laan Hart van Zuid
(52.2563°N, 6.7904°E)
Time: 09:39:57
(UTC+02:00)

ISS - Pass Details

Date: 20 May 2024
Orbit: 411 x 419 km, 51.6° (Epoch: 29 May)

Event Time Altitude Azimuth Distance (km) Brightness Sun altitude
Rises 00:03:44 0° 282° (WNW) 2,372 0.5 -15.3°
Reaches altitude 10° 00:05:56 10° 274° (W) 1,504 -0.6 -15.5°
Maximum altitude 00:09:04 36° 206° (SSW) 675 -3.1 -15.6°
Enters shadow 00:09:27 35° 188° (S) 694 -3.1 -15.6°
